[[{"header":{"parameterUnit":"m.s-1","parameterCategory":1,"la1":30.2991,"la2":30.254,"lo1":-89.0895,"lo2":-89.0444,"dy":0.0017,"dx":0.0017,"nx":28,"ny":28,"refTime":"2025-08-03T09:00:00:Z","depth":0,"parameterNumber":2,"parameterNumberName":"U-component_of_WINDS"},"data":[0,0,0,0,0,0,0,0,0,0,0,0,0,0,0,0,0,0,0,0,0,0,0,0,0,0,0,0,0,0,0,0,0,0,0,0,0,0,0,0,0,0,0,0,0,0,0,0,0,0,0,0,0,0,0,0,0,0,1.1123,1.1123,0,1.1126,1.1126,1.1126,1.1154,1.1155,1.1156,1.1156,1.1159,1.1158,1.1158,0,0,0,0,0,0,0,0,0,0,0,0,0,1.1142,1.1142,1.1123,1.1123,1.1123,1.1126,1.1126,1.1126,1.1154,1.1155,1.1156,1.1157,1.1159,1.1158,1.1158,0,0,0,0,0,0,0,0,0,0,0,0,0,1.1138,1.1141,1.1123,1.1137,1.1139,1.1126,1.1126,1.1126,1.1154,1.1155,1.1156,1.1157,1.1159,1.1158,1.1157,1.1131,0,0,1.1155,1.1154,0,0,0,0,0,0,0,0,1.1138,1.1137,1.1135,1.1136,1.1138,1.1141,1.1133,1.1127,1.1154,1.1148,1.1156,1.1158,1.1152,1.1152,1.115,1.1131,1.1131,1.1155,1.1154,1.1154,1.1153,0,0,0,0,0,0,0,1.1139,1.1137,1.1124,1.1135,1.1137,1.1144,1.1144,1.1132,1.1144,1.1149,1.1151,1.1151,1.1153,1.1151,1.115,1.1131,1.1155,1.1154,1.1153,1.1153,1.109,1.1089,0,0,0,0,0,0,1.1137,1.1137,1.1124,1.1124,1.1141,1.1143,1.1143,1.1139,1.1144,1.1146,1.115,1.1152,1.1152,1.1151,1.115,1.1119,1.1154,1.1153,1.1152,1.1091,1.1089,1.1088,0,0,0,0,0,0,1.1137,1.1135,1.1124,1.1131,1.113,1.1141,1.1136,1.1138,1.1136,1.1145,1.1147,1.1145,1.1152,1.1152,1.1135,1.1119,1.1152,1.1152,1.1092,1.109,1.1089,1.1056,0,0,0,0,0,0,1.1138,1.1135,1.1125,1.1131,1.113,1.1109,1.1135,1.1138,1.1135,1.1137,1.1142,1.1143,1.1153,1.1136,1.1134,1.1119,1.1151,1.1094,1.1091,1.1089,1.1058,1.1053,1.1049,0,0,0,0,0,1.1138,1.1115,1.1124,1.1123,1.1117,1.1108,1.1107,1.1119,1.1133,1.1123,1.1129,1.1143,1.1122,1.1135,1.1132,1.1116,1.1095,1.1092,1.109,1.106,1.1054,1.1049,0,0,0,0,0,0,1.1107,1.1116,1.1126,1.1105,1.1105,1.1112,1.11,1.1112,1.1108,1.1111,1.1126,1.1127,1.1108,1.1111,1.1125,1.1091,1.1111,1.1108,1.1089,1.1083,1.1079,1.1078,1.115,0,0,0,0,0,1.1098,1.1089,1.1098,1.1078,1.1078,1.1089,1.1085,1.1094,1.1095,1.1095,1.11,1.11,1.1094,1.1089,1.1083,1.1059,1.106,1.1047,1.1042,1.1038,1.1035,1.1022,1.1016,1.108,1.108,1.108,0,0,1.1078,1.1082,1.1076,1.1072,1.1073,1.1064,1.1089,1.1078,1.1071,1.1094,1.1078,1.1082,1.1083,1.1063,1.1054,1.1064,1.1018,1.1035,1.1032,1.1031,1.1019,1.1013,1.1008,1.1078,1.1078,1.1079,0,0,1.1038,1.104,1.1024,1.1025,1.1027,1.1035,1.1031,1.1036,1.1039,1.1025,1.1042,1.1034,1.1022,1.1022,1.1021,1.0981,1.0994,1.0979,1.0953,1.0941,1.0936,1.0931,1.0917,1.0911,1.0976,1.0976,1.0976,0,1.1013,1.1,1.1014,1.1002,1.1,1.1021,1.1004,1.1005,1.1004,1.1002,1.1014,1.1,1.1002,1.0982,1.0973,1.0971,1.0967,1.0978,1.0935,1.0931,1.0927,1.0913,1.0908,1.0974,1.0974,1.0975,1.0975,0,1.0969,1.096,1.0946,1.0946,1.0942,1.0928,1.094,1.0935,1.0945,1.0951,1.0936,1.094,1.0935,1.0931,1.0941,1.0913,1.0919,1.0933,1.0953,1.0919,1.0906,1.0901,1.0971,1.0972,1.0973,1.0973,0,0,1.0908,1.0916,1.0911,1.0911,1.0915,1.0908,1.0895,1.0891,1.0886,1.0885,1.0874,1.0864,1.0877,1.0876,1.0886,1.0875,1.0843,1.089,1.0891,1.088,1.0811,1.0799,1.0793,1.0852,1.0851,1.085,1.081,0,1.0868,1.0846,1.0859,1.0835,1.0826,1.0847,1.0835,1.0837,1.0842,1.0836,1.0843,1.0835,1.0853,1.0852,1.0843,1.0849,1.0829,1.0852,1.0841,1.0841,1.0839,1.0786,1.0774,1.0736,1.0806,1.0805,1.0804,0,1.0818,1.0816,1.0791,1.0797,1.0794,1.0783,1.0781,1.0775,1.0777,1.0782,1.078,1.0793,1.0781,1.0802,1.0785,1.08,1.0797,1.0799,1.0798,1.0796,1.0819,1.0782,1.0725,1.0719,1.0797,1.0797,1.0798,0,1.0775,1.0766,1.075,1.0749,1.0756,1.0748,1.0751,1.0754,1.0751,1.0749,1.0746,1.0743,1.0741,1.0738,1.0749,1.0764,1.073,1.0752,1.0733,1.0733,1.0724,1.0724,1.0664,1.0724,1.0724,1.0724,1.0724,0,1.0729,1.0712,1.073,1.072,1.0703,1.0718,1.07,1.0705,1.0708,1.0699,1.0717,1.0708,1.0725,1.0717,1.0727,1.0711,1.071,1.0713,1.0715,1.0711,1.071,1.0708,1.071,1.0723,1.0723,1.0723,1.0724,0,1.0676,1.0688,1.0672,1.068,1.0682,1.0668,1.0675,1.0666,1.0674,1.0662,1.066,1.0672,1.0665,1.0677,1.0671,1.0677,1.0654,1.0661,1.0653,1.0655,1.0635,1.0636,1.057,1.0562,1.0628,1.0627,1.0627,0,1.0645,1.0633,1.064,1.0636,1.0637,1.063,1.0627,1.0642,1.0638,1.064,1.0631,1.0625,1.0621,1.0608,1.0616,1.0612,1.0618,1.0595,1.0617,1.0613,1.0616,1.0616,1.0615,1.059,1.0589,1.0589,1.0588,0,1.0589,1.0595,1.059,1.0587,1.0583,1.0581,1.0581,1.0576,1.0592,1.0587,1.058,1.0577,1.0571,1.0565,1.0562,1.0565,1.0579,1.0581,1.0576,1.0571,1.0566,1.0567,1.064,1.0582,1.0583,1.0583,1.0584,1.0584,1.0545,1.0536,1.0539,1.0533,1.0535,1.0534,1.0526,1.0533,1.0527,1.0524,1.0533,1.0524,1.0526,1.0525,1.0526,1.0518,1.0528,1.0522,1.052,1.0517,1.0514,1.0569,1.0518,1.0518,1.0519,1.0519,1.0519,0,1.0489,1.0492,1.0487,1.0486,1.0481,1.0496,1.0496,1.0491,1.0482,1.0484,1.048,1.0472,1.0466,1.0474,1.0469,1.0462,1.0468,1.046,1.046,1.046,1.0506,1.051,1.0455,1.0455,1.0455,1.0455,1.0455,1.0455,1.0459,1.0443,1.045,1.0435,1.0439,1.043,1.0429,1.0428,1.0429,1.042,1.0415,1.042,1.0424,1.0421,1.0416,1.0419,1.0415,1.0405,1.0409,1.0451,1.0457,1.0463,1.0467,1.0405,1.0404,1.0365,1.0364,1.0364]},{"header":{"parameterUnit":"m.s-1","parameterCategory":1,"la1":30.2991,"la2":30.254,"lo1":-89.0895,"lo2":-89.0444,"dy":0.0017,"dx":0.0017,"nx":28,"ny":28,"refTime":"2025-08-03T09:00:00:Z","depth":0,"parameterNumber":3,"parameterNumberName":"V-component_of_WINDS"},"data":[0,0,0,0,0,0,0,0,0,0,0,0,0,0,0,0,0,0,0,0,0,0,0,0,0,0,0,0,0,0,0,0,0,0,0,0,0,0,0,0,0,0,0,0,0,0,0,0,0,0,0,0,0,0,0,0,0,0,-0.9263,-0.9263,0,-0.927,-0.927,-0.927,-0.9289,-0.929,-0.929,-0.9291,-0.9296,-0.9296,-0.9295,0,0,0,0,0,0,0,0,0,0,0,0,0,-0.9268,-0.9268,-0.9263,-0.9263,-0.9263,-0.927,-0.927,-0.927,-0.9289,-0.929,-0.929,-0.9291,-0.9296,-0.9296,-0.9295,0,0,0,0,0,0,0,0,0,0,0,0,0,-0.927,-0.9268,-0.9263,-0.9274,-0.9275,-0.927,-0.927,-0.927,-0.9289,-0.929,-0.9291,-0.9291,-0.9296,-0.9296,-0.9295,-0.928,0,0,-0.9294,-0.9294,0,0,0,0,0,0,0,0,-0.927,-0.9269,-0.9272,-0.9273,-0.9274,-0.928,-0.9274,-0.9273,-0.9289,-0.9284,-0.9291,-0.9292,-0.929,-0.929,-0.929,-0.928,-0.928,-0.9294,-0.9294,-0.9294,-0.9293,0,0,0,0,0,0,0,-0.9269,-0.9269,-0.9266,-0.9272,-0.9273,-0.9279,-0.928,-0.9274,-0.9283,-0.9284,-0.9286,-0.9286,-0.929,-0.929,-0.929,-0.928,-0.9294,-0.9294,-0.9293,-0.9293,-0.9263,-0.9262,0,0,0,0,0,0,-0.9268,-0.9269,-0.9266,-0.9266,-0.9274,-0.9278,-0.9279,-0.9277,-0.9283,-0.9285,-0.9286,-0.9287,-0.929,-0.929,-0.929,-0.9275,-0.9294,-0.9293,-0.9293,-0.9264,-0.9263,-0.9262,0,0,0,0,0,0,-0.9268,-0.9267,-0.9265,-0.9268,-0.9268,-0.9277,-0.9275,-0.9277,-0.9277,-0.9284,-0.9286,-0.9284,-0.9291,-0.9291,-0.9283,-0.9276,-0.9293,-0.9293,-0.9264,-0.9263,-0.9263,-0.9244,0,0,0,0,0,0,-0.9268,-0.9267,-0.9261,-0.9268,-0.9268,-0.9258,-0.9274,-0.9277,-0.9276,-0.9278,-0.9283,-0.9284,-0.9291,-0.9284,-0.9283,-0.9275,-0.9292,-0.9265,-0.9264,-0.9263,-0.9245,-0.9242,-0.924,0,0,0,0,0,-0.9268,-0.9254,-0.926,-0.926,-0.926,-0.9257,-0.9257,-0.9267,-0.9275,-0.927,-0.9275,-0.9284,-0.9277,-0.9283,-0.9282,-0.9274,-0.9265,-0.9264,-0.9263,-0.9246,-0.9243,-0.924,0,0,0,0,0,0,-0.9244,-0.9255,-0.9262,-0.925,-0.9253,-0.9261,-0.9253,-0.9262,-0.9262,-0.9264,-0.9275,-0.9276,-0.9268,-0.927,-0.9277,-0.9262,-0.9273,-0.9271,-0.926,-0.9257,-0.9255,-0.9254,-0.9292,0,0,0,0,0,-0.9238,-0.9234,-0.9244,-0.9232,-0.9234,-0.9243,-0.9242,-0.925,-0.9253,-0.9254,-0.9259,-0.9261,-0.926,-0.9259,-0.9258,-0.9246,-0.9249,-0.9241,-0.9238,-0.9236,-0.9234,-0.9232,-0.9229,-0.9258,-0.9258,-0.9258,0,0,-0.9223,-0.9229,-0.9226,-0.9228,-0.9231,-0.9228,-0.9244,-0.9239,-0.9238,-0.9253,-0.9247,-0.9251,-0.9255,-0.9246,-0.9243,-0.9248,-0.9227,-0.9234,-0.9233,-0.9232,-0.923,-0.9227,-0.9225,-0.9257,-0.9257,-0.9258,0,0,-0.9197,-0.92,-0.9193,-0.9196,-0.9202,-0.9209,-0.9207,-0.9215,-0.9219,-0.9213,-0.9226,-0.9224,-0.9221,-0.9225,-0.9226,-0.9206,-0.9214,-0.9205,-0.9192,-0.9189,-0.9187,-0.9185,-0.9179,-0.9177,-0.9204,-0.9204,-0.9203,0,-0.9179,-0.9175,-0.9187,-0.9183,-0.9185,-0.92,-0.9194,-0.9196,-0.9201,-0.9202,-0.9208,-0.9208,-0.9211,-0.9205,-0.9201,-0.92,-0.92,-0.9204,-0.9186,-0.9184,-0.9183,-0.9178,-0.9176,-0.9202,-0.9203,-0.9203,-0.9203,0,-0.9154,-0.9152,-0.9145,-0.9151,-0.9152,-0.9146,-0.9158,-0.9158,-0.9166,-0.9173,-0.917,-0.9175,-0.9177,-0.9176,-0.9183,-0.9172,-0.9176,-0.9184,-0.9195,-0.9179,-0.9174,-0.9172,-0.9201,-0.9201,-0.9202,-0.9202,0,0,-0.911,-0.9126,-0.9124,-0.9128,-0.9137,-0.9136,-0.9133,-0.9136,-0.9137,-0.914,-0.9138,-0.9138,-0.9147,-0.9148,-0.9156,-0.9153,-0.9141,-0.9162,-0.9163,-0.916,-0.9132,-0.9126,-0.9124,-0.9147,-0.9147,-0.9146,-0.9132,0,-0.9087,-0.9082,-0.9095,-0.9087,-0.9087,-0.9104,-0.9101,-0.9107,-0.9114,-0.9116,-0.9124,-0.9124,-0.9134,-0.9136,-0.9134,-0.9142,-0.9135,-0.9144,-0.9146,-0.9146,-0.9145,-0.9121,-0.9114,-0.9101,-0.913,-0.913,-0.913,0,-0.9058,-0.9063,-0.9056,-0.9069,-0.907,-0.9067,-0.9073,-0.9074,-0.9082,-0.9088,-0.9092,-0.9102,-0.9101,-0.9112,-0.9112,-0.9118,-0.912,-0.9125,-0.9124,-0.9125,-0.9137,-0.9123,-0.9096,-0.9094,-0.9127,-0.9127,-0.9127,0,-0.903,-0.9034,-0.9032,-0.9035,-0.9049,-0.9048,-0.9054,-0.9063,-0.9065,-0.9071,-0.9073,-0.9078,-0.908,-0.9085,-0.9097,-0.9103,-0.9096,-0.9107,-0.9102,-0.9102,-0.9099,-0.9099,-0.9074,-0.9099,-0.9099,-0.9099,-0.9099,0,-0.9003,-0.8999,-0.902,-0.9018,-0.9014,-0.903,-0.9026,-0.9033,-0.9042,-0.9043,-0.9057,-0.9058,-0.9074,-0.9077,-0.9086,-0.9086,-0.9087,-0.9092,-0.9095,-0.9091,-0.9091,-0.9093,-0.9095,-0.9099,-0.9099,-0.9099,-0.9099,0,-0.897,-0.8984,-0.8983,-0.8998,-0.9002,-0.8999,-0.9012,-0.9012,-0.9022,-0.9023,-0.9024,-0.9039,-0.9044,-0.9057,-0.9064,-0.907,-0.9068,-0.9072,-0.9066,-0.9067,-0.9062,-0.9063,-0.9037,-0.9036,-0.9061,-0.9061,-0.9061,0,-0.8953,-0.895,-0.8966,-0.8969,-0.8975,-0.8978,-0.8982,-0.8997,-0.9001,-0.9012,-0.9011,-0.9017,-0.9023,-0.9029,-0.9041,-0.9048,-0.9053,-0.9044,-0.9054,-0.9051,-0.9055,-0.9055,-0.9056,-0.9041,-0.9041,-0.9041,-0.904,0,-0.8921,-0.8929,-0.8934,-0.8942,-0.8946,-0.8953,-0.8961,-0.8962,-0.898,-0.8983,-0.8989,-0.8994,-0.9003,-0.9009,-0.9018,-0.9025,-0.9036,-0.9038,-0.9037,-0.9033,-0.903,-0.9034,-0.9061,-0.9038,-0.9038,-0.9038,-0.9038,-0.9039,-0.8896,-0.8896,-0.8908,-0.8914,-0.8923,-0.893,-0.8932,-0.8943,-0.8948,-0.8958,-0.8967,-0.8972,-0.8984,-0.8998,-0.9004,-0.9009,-0.9014,-0.9013,-0.9013,-0.9012,-0.9012,-0.9029,-0.901,-0.9011,-0.9011,-0.9011,-0.9011,0,-0.8867,-0.8876,-0.8882,-0.8894,-0.8899,-0.8911,-0.8921,-0.8924,-0.8929,-0.8939,-0.8946,-0.8954,-0.8961,-0.8975,-0.8984,-0.8985,-0.8991,-0.8987,-0.8987,-0.8989,-0.9005,-0.9006,-0.8983,-0.8983,-0.8983,-0.8983,-0.8983,-0.8983,-0.8852,-0.8853,-0.8863,-0.887,-0.8879,-0.8886,-0.8891,-0.8899,-0.8907,-0.8916,-0.8923,-0.8932,-0.8945,-0.8955,-0.8963,-0.8967,-0.897,-0.8965,-0.897,-0.8985,-0.8988,-0.899,-0.8991,-0.8965,-0.8965,-0.8954,-0.8954,-0.8954]}]]